• en Suisse
  • Liste des pays
  • À 7 jours
  • Température de l'eau
  • Carte satellitaire
  • Carte météo
  • Widgets météo
  • user-avatar
    Se connecter

    Météo par heure à Stremutka

    Ce jour, 19 Août, Dimanche

    Heure Température Précipitation Vent Pression Humidité
    00:00 +18°C° 0 mm 2 m/s 758 mmHg 96%
    01:00 +17°C° 0 mm 2 m/s 758 mmHg 96%
    02:00 +17°C° 0 mm 2 m/s 758 mmHg 97%
    03:00 +17°C° 0 mm 2 m/s 758 mmHg 97%
    04:00 +16°C° 0 mm 2 m/s 758 mmHg 97%
    05:00 +16°C° 0 mm 2 m/s 758 mmHg 98%
    06:00 +17°C° 0 mm 2 m/s 758 mmHg 93%
    07:00 +18°C° 0 mm 2 m/s 758 mmHg 89%
    08:00 +19°C° 0 mm 3 m/s 758 mmHg 85%
    09:00 +20°C° 0 mm 3 m/s 758 mmHg 75%
    10:00 +21°C° 0 mm 4 m/s 758 mmHg 66%
    11:00 +23°C° 0 mm 4 m/s 757 mmHg 56%
    12:00 +23°C° 0 mm 4 m/s 757 mmHg 57%
    13:00 +23°C° 0 mm 4 m/s 757 mmHg 58%
    14:00 +23°C° 0 mm 4 m/s 757 mmHg 58%
    15:00 +22°C° 0,1 mm 4 m/s 757 mmHg 64%
    16:00 +21°C° 0,1 mm 4 m/s 757 mmHg 70%
    17:00 +21°C° 0,1 mm 4 m/s 757 mmHg 76%
    18:00 +20°C° 0,1 mm 3 m/s 757 mmHg 81%
    19:00 +19°C° 0,1 mm 3 m/s 757 mmHg 86%
    20:00 +18°C° 0,1 mm 3 m/s 757 mmHg 91%
    21:00 +18°C° 0 mm 3 m/s 757 mmHg 93%
    22:00 +17°C° 0 mm 2 m/s 757 mmHg 95%
    23:00 +17°C° 0 mm 2 m/s 757 mmHg 97%

    Demain, 20 Août, Lundi

    Heure Température Précipitation Vent Pression Humidité
    00:00 +17°C° 0 mm 2 m/s 757 mmHg 97%
    01:00 +16°C° 0 mm 2 m/s 757 mmHg 97%
    02:00 +16°C° 0 mm 2 m/s 757 mmHg 98%
    03:00 +16°C° 0,1 mm 2 m/s 757 mmHg 98%
    04:00 +16°C° 0,1 mm 2 m/s 756 mmHg 97%
    05:00 +17°C° 0,1 mm 2 m/s 756 mmHg 97%
    06:00 +17°C° 0,2 mm 2 m/s 756 mmHg 96%
    07:00 +17°C° 0,2 mm 3 m/s 756 mmHg 95%
    08:00 +18°C° 0,2 mm 3 m/s 756 mmHg 93%
    09:00 +19°C° 0 mm 4 m/s 755 mmHg 87%
    10:00 +21°C° 0 mm 4 m/s 755 mmHg 80%
    11:00 +22°C° 0 mm 5 m/s 754 mmHg 74%
    12:00 +23°C° 0 mm 5 m/s 754 mmHg 69%
    13:00 +25°C° 0 mm 5 m/s 753 mmHg 65%
    14:00 +26°C° 0 mm 5 m/s 752 mmHg 60%
    15:00 +25°C° 0,3 mm 5 m/s 752 mmHg 65%
    16:00 +25°C° 0,3 mm 5 m/s 751 mmHg 70%
    17:00 +25°C° 0,3 mm 4 m/s 750 mmHg 75%
    18:00 +22°C° 0,6 mm 4 m/s 750 mmHg 80%
    19:00 +21°C° 0,6 mm 4 m/s 750 mmHg 85%
    20:00 +19°C° 0,6 mm 4 m/s 749 mmHg 91%
    21:00 +19°C° 0,3 mm 4 m/s 748 mmHg 92%
    22:00 +19°C° 0,3 mm 4 m/s 748 mmHg 92%
    23:00 +17°C° 0,3 mm 5 m/s 747 mmHg 93%

    Après-demain, 21 Août, Mardi

    Heure Température Précipitation Vent Pression Humidité
    00:00 +17°C° 0,5 mm 5 m/s 747 mmHg 93%
    01:00 +17°C° 0,5 mm 6 m/s 747 mmHg 93%
    02:00 +16°C° 0,5 mm 6 m/s 747 mmHg 93%
    03:00 +15°C° 0,1 mm 6 m/s 747 mmHg 92%
    04:00 +14°C° 0,1 mm 6 m/s 748 mmHg 92%
    05:00 +13°C° 0,1 mm 6 m/s 748 mmHg 91%
    06:00 +13°C° 0 mm 6 m/s 749 mmHg 87%
    07:00 +14°C° 0 mm 6 m/s 749 mmHg 82%
    08:00 +15°C° 0 mm 6 m/s 750 mmHg 78%
    09:00 +16°C° 0,1 mm 7 m/s 751 mmHg 70%
    10:00 +17°C° 0,1 mm 7 m/s 751 mmHg 63%
    11:00 +18°C° 0,1 mm 7 m/s 752 mmHg 55%
    12:00 +18°C° 0,2 mm 7 m/s 752 mmHg 55%
    13:00 +20°C° 0,2 mm 7 m/s 752 mmHg 55%
    14:00 +20°C° 0,2 mm 7 m/s 753 mmHg 54%
    15:00 +18°C° 0,1 mm 7 m/s 753 mmHg 55%
    16:00 +19°C° 0,1 mm 6 m/s 754 mmHg 56%
    17:00 +17°C° 0,1 mm 6 m/s 754 mmHg 57%
    18:00 +16°C° 0 mm 5 m/s 755 mmHg 60%
    19:00 +15°C° 0 mm 5 m/s 755 mmHg 63%
    20:00 +14°C° 0 mm 4 m/s 756 mmHg 66%
    21:00 +13°C° 0 mm 4 m/s 756 mmHg 68%
    22:00 +12°C° 0 mm 5 m/s 757 mmHg 70%
    23:00 +12°C° 0 mm 5 m/s 757 mmHg 71%

    22 Août, Mercredi

    Heure Température Précipitation Vent Pression Humidité
    00:00 +11°C° 0 mm 4 m/s 758 mmHg 72%
    01:00 +11°C° 0 mm 4 m/s 758 mmHg 73%
    02:00 +10°C° 0 mm 4 m/s 758 mmHg 74%
    03:00 +10°C° 0 mm 4 m/s 759 mmHg 75%
    04:00 +10°C° 0 mm 4 m/s 759 mmHg 75%
    05:00 +9°C° 0 mm 3 m/s 760 mmHg 76%
    06:00 +11°C° 0 mm 4 m/s 760 mmHg 70%
    07:00 +12°C° 0 mm 4 m/s 761 mmHg 65%
    08:00 +14°C° 0 mm 4 m/s 761 mmHg 59%
    09:00 +15°C° 0 mm 4 m/s 761 mmHg 54%
    10:00 +17°C° 0 mm 4 m/s 761 mmHg 50%
    11:00 +18°C° 0 mm 4 m/s 761 mmHg 45%
    12:00 +19°C° 0 mm 4 m/s 761 mmHg 45%
    13:00 +20°C° 0 mm 3 m/s 761 mmHg 44%
    14:00 +20°C° 0 mm 3 m/s 761 mmHg 44%
    15:00 +20°C° 0 mm 3 m/s 761 mmHg 48%
    16:00 +20°C° 0 mm 3 m/s 761 mmHg 52%
    17:00 +20°C° 0 mm 2 m/s 761 mmHg 56%
    18:00 +18°C° 0 mm 2 m/s 761 mmHg 62%
    19:00 +17°C° 0 mm 2 m/s 761 mmHg 69%
    20:00 +15°C° 0 mm 2 m/s 761 mmHg 76%
    21:00 +14°C° 0 mm 3 m/s 761 mmHg 76%
    22:00 +13°C° 0 mm 3 m/s 761 mmHg 77%
    23:00 +13°C° 0 mm 3 m/s 761 mmHg 78%

    23 Août, Jeudi

    Heure Température Précipitation Vent Pression Humidité
    00:00 +13°C° 0 mm 3 m/s 761 mmHg 79%
    01:00 +13°C° 0 mm 4 m/s 761 mmHg 79%
    02:00 +12°C° 0 mm 4 m/s 761 mmHg 80%
    03:00 +12°C° 0 mm 4 m/s 761 mmHg 79%
    04:00 +12°C° 0 mm 4 m/s 760 mmHg 79%
    05:00 +12°C° 0 mm 4 m/s 760 mmHg 78%
    06:00 +13°C° 0 mm 4 m/s 760 mmHg 73%
    07:00 +14°C° 0 mm 5 m/s 760 mmHg 69%
    08:00 +16°C° 0 mm 5 m/s 759 mmHg 64%
    09:00 +17°C° 0 mm 5 m/s 759 mmHg 60%
    10:00 +20°C° 0 mm 5 m/s 759 mmHg 56%
    11:00 +22°C° 0 mm 5 m/s 759 mmHg 52%
    12:00 +23°C° 0 mm 5 m/s 758 mmHg 50%
    13:00 +23°C° 0 mm 5 m/s 758 mmHg 49%
    14:00 +25°C° 0 mm 5 m/s 758 mmHg 48%
    15:00 +25°C° 0 mm 4 m/s 758 mmHg 52%
    16:00 +25°C° 0 mm 4 m/s 758 mmHg 56%
    17:00 +24°C° 0 mm 3 m/s 757 mmHg 60%
    18:00 +22°C° 0 mm 3 m/s 757 mmHg 66%
    19:00 +20°C° 0 mm 3 m/s 757 mmHg 72%
    20:00 +18°C° 0 mm 2 m/s 757 mmHg 78%
    21:00 +18°C° 0 mm 3 m/s 758 mmHg 80%
    22:00 +18°C° 0 mm 3 m/s 758 mmHg 82%
    23:00 +17°C° 0 mm 3 m/s 758 mmHg 84%

    24 Août, Vendredi

    Heure Température Précipitation Vent Pression Humidité
    00:00 +17°C° 0 mm 3 m/s 758 mmHg 86%
    01:00 +17°C° 0 mm 3 m/s 758 mmHg 87%
    02:00 +17°C° 0 mm 3 m/s 758 mmHg 88%
    03:00 +16°C° 0 mm 3 m/s 758 mmHg 89%
    04:00 +16°C° 0 mm 3 m/s 758 mmHg 90%
    05:00 +16°C° 0 mm 3 m/s 758 mmHg 91%
    06:00 +17°C° 0 mm 3 m/s 758 mmHg 86%
    07:00 +18°C° 0 mm 3 m/s 758 mmHg 82%
    08:00 +19°C° 0 mm 3 m/s 758 mmHg 77%
    09:00 +21°C° 0 mm 4 m/s 757 mmHg 70%
    10:00 +23°C° 0 mm 4 m/s 757 mmHg 62%
    11:00 +25°C° 0 mm 4 m/s 757 mmHg 55%
    12:00 +26°C° 0 mm 4 m/s 757 mmHg 53%
    13:00 +27°C° 0 mm 5 m/s 756 mmHg 51%
    14:00 +27°C° 0 mm 5 m/s 756 mmHg 49%
    15:00 +27°C° 0 mm 4 m/s 756 mmHg 51%
    16:00 +26°C° 0 mm 4 m/s 755 mmHg 54%
    17:00 +26°C° 0 mm 4 m/s 755 mmHg 56%
    18:00 +24°C° 0 mm 3 m/s 755 mmHg 61%
    19:00 +21°C° 0 mm 3 m/s 755 mmHg 66%
    20:00 +19°C° 0 mm 3 m/s 755 mmHg 71%
    21:00 +18°C° 0 mm 3 m/s 755 mmHg 72%
    22:00 +18°C° 0 mm 3 m/s 755 mmHg 74%
    23:00 +17°C° 0 mm 3 m/s 755 mmHg 75%
    Voir plus